Location: Cadagu�s
(42.2892°N, 3.2757°E)
Time: 17:26:34
(UTC+00:00)

Daily predictions for brighter satellites

Satellite Brightness Start Highest point End
(mag) Time Altitude Azimuth Time Altitude Azimuth Time Altitude Azimuth
VEP-3 4.2 19:54:54 10° SSW 19:58:19 16° S 20:02:16 10° SE
Cosmos 2322 Rocket 2.2 19:54:10 10° SSW 19:59:46 84° ESE 20:05:25 10° NNE
Cosmos 2298 Rocket 4.4 19:55:39 10° NNW 20:00:58 70° WSW 20:06:15 10° S
SPOT 3 Rocket 3.6 19:56:47 10° SSE 20:01:59 83° ENE 20:07:14 10° NNW
NOSS 7 (D) 4.1 19:59:11 10° SSW 20:02:00 47° ESE 20:04:39 10° NE
Cosmos 2237 4.5 19:57:04 10° S 20:02:34 50° ESE 20:08:05 10° NE
MOS 1 Rocket 4.5 19:58:41 10° N 20:03:15 49° WNW 20:08:04 10° SSW
OAO 2 Rocket 4.3 19:59:05 10° SW 20:03:38 30° SSE 20:08:14 10° ESE
SJ-6B 4.1 20:02:04 10° S 20:05:50 42° W 20:09:41 10° NNW
Cosmos 1461 3.4 20:08:26 10° NW 20:13:10 70° WSW 20:17:52 10° SSE
Cosmos 1455 3.0 20:09:37 10° N 20:13:13 36° ENE 20:16:46 10° SE
ATLAS CENTAUR R/B 3.7 20:17:55 10° NNE 20:18:35 10° NE 20:19:15 10° NE
Cosmos 1703 4.1 20:15:50 10° SSE 20:19:17 32° E 20:22:46 10° NNE
COSMOS 2428 4.0 20:16:01 10° SE 20:20:01 20° E 20:24:00 10° NE
Geosat 4.2 20:15:29 10° SSE 20:20:30 76° WSW 20:25:34 10° NNW
Cosmos 1812 Rocket 3.5 20:19:12 10° N 20:23:32 73° E 20:27:51 10° SSE
Cosmos 2322 4.3 20:18:29 10° S 20:23:40 37° ESE 20:28:53 10° NE
Delta 2 Rocket 3.9 20:23:12 10° WSW 20:26:06 26° S 20:28:09 15° SE
Cosmos 1602 Rocket 3.8 20:23:36 10° SSW 20:27:59 76° W 20:32:27 10° N
Cosmos 1709 Rocket 4.5 20:24:52 10° SSE 20:30:44 43° E 20:36:41 10° NNE
Cosmos 2263 Rocket 3.7 20:28:10 10° NW 20:33:03 32° WSW 20:37:55 10° SSW
MetOp-B 4.2 20:27:50 10° SSE 20:33:09 71° ENE 20:38:30 10° N
Atlas Centaur 2 3.4 20:29:06 10° SW 20:33:59 28° S 20:38:47 14° SE
Nadezhda 1 Rocket 4.1 20:27:50 10° N 20:34:17 80° E 20:40:39 10° S
Terra 3.6 20:31:40 10° ESE 20:34:52 19° ENE 20:38:09 10° NNE
Cosmos 2219 Rocket 3.0 20:31:08 10° SSE 20:35:55 30° ESE 20:40:44 10° NE
Cosmos 2360 Rocket 2.2 20:31:59 10° SSW 20:37:38 90° ESE 20:43:20 10° NNE
IGS 5A 3.7 20:35:34 15° SSE 20:38:53 53° ENE 20:42:57 10° N
IRIS 3.9 20:38:25 10° WSW 20:41:38 57° S 20:43:18 18° E
DELTA 2 R/B (1) 4.5 20:37:54 10° SSW 20:42:27 26° SSE 20:47:03 10° E
Cosmos 2333 Rocket 2.7 20:40:23 10° S 20:45:37 40° ESE 20:50:54 10° NE
Resurs 01 Rocket 2.6 20:46:28 10° S 20:50:41 45° W 20:54:56 10° NNW
Cosmos 1315 Rocket 4.4 20:49:04 10° NNE 20:52:23 23° ENE 20:54:13 17° ESE
Cosmos 1818 3.9 20:47:35 10° SW 20:52:58 69° NW 20:58:26 10° NNE
Cosmos 773 Rocket 4.1 20:50:30 10° S 20:55:42 61° ESE 21:00:55 10° NNE
Cosmos-2242 3.0 20:51:44 10° N 20:56:05 72° E 20:59:06 20° SSE
SL-16 R/B 4.3 20:51:52 10° WSW 20:56:50 30° NW 21:01:49 10° N
ERS-1 Rocket 3.3 20:56:51 20° SE 21:00:09 51° ENE 21:05:03 10° N
Cosmos 2221 4.3 20:57:47 10° NNE 21:00:49 18° ENE 21:02:29 15° E
GEOS 3 Rocket 3.8 20:59:48 10° NE 21:05:14 81° NW 21:10:36 10° SW
USA 215 3.2 21:02:06 10° NE 21:08:39 70° SE 21:15:09 10° SW
Cosmos 2278 Rocket 3.7 21:04:52 10° N 21:09:29 25° NE 21:13:09 14° E
ATLAS 5 CENTAUR R/B 2.5 21:05:50 10° SW 21:09:49 49° NW 21:14:17 10° NNE
Meteor 1-11 4.2 21:05:32 14° S 21:10:22 70° E 21:16:01 10° NNE
USA 245 3.5 21:08:35 22° S 21:10:29 57° W 21:14:21 10° NNW
Cosmos 1758 Rocket 4.4 21:09:09 10° SSW 21:13:31 51° WNW 21:17:55 10° N
Cosmos 1844 Rocket 2.8 21:09:04 10° NNW 21:14:37 72° WSW 21:18:16 22° S
Cosmos 1400 Rocket 3.0 21:11:26 10° NNW 21:15:23 67° W 21:17:42 23° S
SPOT 5 3.0 21:13:57 25° SSE 21:16:51 64° ENE 21:21:39 10° N
Spot 2 Rocket 4.0 21:16:44 16° S 21:20:42 54° W 21:25:43 10° NNW
OAO 3 Rocket 4.3 21:18:51 10° WSW 21:23:00 27° SSW 21:23:57 26° S
USA 81 4.0 21:19:51 22° S 21:23:21 75° E 21:28:38 10° N
Landsat 7 4.5 21:21:48 17° S 21:25:15 50° W 21:29:54 10° NNW
Cosmos 2058 4.3 21:25:00 21° E 21:25:22 22° E 21:28:33 10° NE
BREEZE M DEB (TANK) 1.7 21:25:18 10° WNW 21:27:37 62° NNE 21:27:39 62° NNE
Cosmos 2181 Rocket 4.0 21:24:04 10° N 21:30:27 83° E 21:34:15 25° S
Cosmos 2074 Rocket 4.2 21:29:15 27° SSE 21:32:29 51° E 21:38:28 10° NNE
SPOT 1/Viking Rocket 4.1 21:31:53 20° S 21:35:19 53° W 21:40:22 10° NNW
Cosmos 1953 Rocket 4.2 21:33:11 15° SSW 21:36:38 52° W 21:40:53 10° N
Cosmos 1680 Rocket 4.4 21:35:41 28° ESE 21:36:39 30° E 21:41:13 10° NE
USA 267 4.0 21:34:05 12° E 21:39:50 48° NNE 21:46:05 10° NW
Cosmos 2084 3.7 21:42:11 10° NNW 21:46:37 62° NE 21:48:05 39° ESE
Cosmos 1842 Rocket 3.5 21:43:33 10° N 21:47:53 67° E 21:49:02 46° SE
OAO 2 Rocket 3.9 21:43:00 10° WSW 21:47:55 38° S 21:48:29 37° SSE
JB-3 4.3 21:45:46 10° NNE 21:49:34 55° E 21:49:57 52° SE
MTI 3.8 21:50:25 10° NNE 21:53:10 61° ENE 21:53:10 61° ENE
Cosmos 923 Rocket 4.1 21:52:20 38° SSE 21:54:02 56° ESE 21:59:12 10° NNE
Cosmos 1825 4.1 21:58:09 18° ENE 21:58:09 18° ENE 22:00:14 10° NE
ATLAS CENTAUR R/B 0.8 21:54:25 10° NNW 21:58:06 85° ENE 21:58:26 72° SE
Cosmos 1980 3.8 21:56:55 37° SSE 21:58:48 54° ESE 22:04:18 10° NNE
Cosmos 967 Rocket 4.4 21:55:33 16° SSW 22:00:56 79° ESE 22:07:25 10° NE
COSMOS 2428 3.2 21:58:11 10° SW 22:03:44 59° WNW 22:09:22 10° NNE
Cosmos 1869 3.2 22:04:50 10° N 22:08:50 86° W 22:09:22 66° S
NOSS 0 Rocket 3.8 22:07:31 27° SSW 22:11:06 83° ESE 22:17:18 10° NNE
Terra 2.4 22:10:34 35° SSW 22:12:13 50° W 22:16:52 10° NNW
NOSS 3-4 (A) 4.4 22:08:27 10° NNW 22:15:17 53° NE 22:19:47 25° ESE
NOSS 3-4 (C) 4.4 22:08:33 10° NNW 22:15:24 53° NE 22:19:55 24° ESE
Cosmos 2237 Rocket 2.1 22:14:58 40° S 22:17:02 72° ESE 22:22:44 10° NNE
Genesis I 3.7 22:18:35 46° ENE 22:18:35 46° ENE 22:21:38 10° NE
Cosmos 2344 3.6 22:16:02 31° S 22:19:34 57° ESE 22:27:08 10° NE
Cosmos 2219 Rocket 3.4 22:14:29 10° SW 22:19:41 39° WNW 22:24:57 10° N
Elektron 1 4.0 22:21:21 81° W 22:21:27 83° NW 22:25:59 10° NE
BREEZE-M R/B 3.8 22:13:12 10° WNW 22:22:22 58° SW 22:23:36 47° S
Atlas Centaur 2 3.7 22:17:10 10° WSW 22:21:20 25° SSW 22:21:20 25° SSW
DELTA 2 R/B (1) 3.5 22:22:52 10° WSW 22:28:19 57° SSE 22:30:03 40° ESE
Cosmos 1315 Rocket 4.4 22:25:25 10° NW 22:28:53 27° W 22:29:55 24° WSW
Cosmos 2333 Rocket 3.8 22:24:54 10° WSW 22:29:56 32° NW 22:35:03 10° N
Cosmos 2184 Rocket 4.4 22:27:11 27° SSW 22:30:37 60° W 22:36:52 10° N
Thor Agena Rocket 3.4 22:27:14 10° NNE 22:32:22 72° ESE 22:33:18 57° SSE
Cosmos 2221 3.4 22:34:28 10° NNW 22:38:34 39° W 22:39:20 36° WSW
BREEZE-M DEB (TANK) 3.3 22:37:23 10° NW 22:40:47 28° N 22:41:22 25° NNE
Cosmos 1892 3.5 22:41:59 41° W 22:42:18 42° WNW 22:45:56 10° N
Iridium 2 3.8 22:38:55 10° N 22:42:26 73° NNE 22:42:26 73° NNE
Cosmos 1371 Rocket 4.1 22:37:55 10° NNW 22:43:10 65° ENE 22:44:15 52° ESE
ATLAS 2AS CENTAUR R/B 2.9 22:35:48 10° NNW 22:43:20 69° NE 22:46:25 36° SE
Cosmos 1766 Rocket 4.3 22:44:24 39° E 22:44:24 39° E 22:48:13 10° NNE
EO 1 Del DPAF 3.3 22:41:35 10° NNE 22:44:59 72° NNE 22:44:59 72° NNE
Okean 3 Rocket 4.0 22:47:03 49° E 22:47:03 49° E 22:51:12 10° NNE
MOS 1-B Rocket 4.3 22:39:48 10° NNE 22:47:26 83° ESE 22:49:56 43° S
Cosmos 2112 Rocket 4.1 22:48:24 44° SW 22:50:04 73° WNW 22:55:27 10° NNE
Aureole 2 Rocket 4.4 22:47:36 10° N 22:48:59 20° NNE 22:48:59 20° NNE
USA 215 4.4 22:45:18 10° NE 22:51:24 43° NNW 22:57:30 10° W
Cosmos 2218 Rocket 4.5 22:50:54 40° SE 22:52:19 46° E 22:58:18 10° NNE
Cosmos 1606 3.7 22:49:04 10° N 22:52:19 37° ENE 22:52:19 37° ENE
Cosmos 2278 Rocket 2.5 22:48:22 10° NNW 22:53:53 54° WSW 22:54:59 47° SSW
Cosmos 158 Rocket 4.2 22:52:56 42° SW 22:54:20 59° WNW 22:59:11 10° NNE
Cosmos 2297 4.4 22:49:50 10° NNW 22:55:21 46° ENE 22:57:11 35° ESE
Cosmos 2366 rocket 4.4 22:56:35 42° SE 22:57:59 48° E 23:04:03 10° NNE
Spot 4 3.8 22:59:07 65° SW 22:59:35 71° WSW 23:04:22 10° NNW
Lacrosse 5 rocket 4.3 22:58:18 10° NNW 23:00:04 12° NNE 23:01:46 10° NE
SL-16 R/B 2.2 23:00:46 56° SE 23:01:23 60° ESE 23:06:59 10° NNE
Cosmos 1943 Rocket 3.8 22:57:02 10° N 23:01:47 26° NE 23:04:40 18° E
TIMED 4.5 23:01:49 75° W 23:01:57 76° WNW 23:06:21 10° NNE
Cosmos 2058 4.4 23:01:10 26° W 23:02:06 29° WNW 23:05:45 10° NNW
Cosmos 1408 3.7 23:03:24 37° WNW 23:03:24 37° WNW 23:06:30 10° N
Gblst 52 Del rocket 4.4 23:00:32 10° WNW 23:06:23 62° SW 23:07:28 54° S
Cosmos 2056 Rocket 3.4 23:01:41 10° NNW 23:07:09 90° SE 23:07:58 66° SSE
Cosmos 2341 Rocket 4.0 23:11:46 49° SSW 23:13:34 77° W 23:19:48 10° N
Meteor 2-3 Rocket 3.8 23:21:02 55° SE 23:21:45 60° E 23:27:21 10° NNE
USA 267 3.3 23:21:24 50° S 23:22:44 59° SW 23:29:12 10° NW
IRIDIUM 104 4.1 23:23:26 72° SSE 23:23:59 85° E 23:29:14 10° N
Cosmos 2151 3.7 23:23:52 45° W 23:24:01 45° WNW 23:28:09 10° N
Helios 1A 3.6 23:24:53 48° ENE 23:24:53 48° ENE 23:28:48 10° N
SL-8 Rocket 4.0 23:30:59 52° SSW 23:32:31 74° W 23:38:42 10° N
Cosmos 1825 3.8 23:32:56 27° WNW 23:32:56 27° WNW 23:36:06 10° NNW
IRIDIUM 114 4.2 23:32:35 69° SSW 23:33:09 79° W 23:38:24 10° N
Cosmos 1340 3.4 23:34:23 52° N 23:34:23 52° N 23:37:18 10° N
Meteor 1-26 Rocket 4.4 23:28:08 10° N 23:34:08 69° E 23:35:20 55° SE
Cosmos 1452 Rocket 3.9 23:28:59 10° NNW 23:34:10 56° ENE 23:35:06 49° ESE
CZ-4C R/B 4.3 23:28:08 10° NNW 23:34:28 34° NE 23:41:39 10° ESE
ALOS 2 2.9 23:35:27 56° W 23:35:27 56° W 23:39:31 10° NNW
Cosmos 1408 Rocket 3.6 23:35:56 77° NNE 23:35:56 77° NNE 23:40:03 10° N
COSMOS 2455 3.5 23:29:57 10° NNW 23:35:49 49° NE 23:38:24 30° ESE
Meteor 2-12 Rocket 4.4 23:37:27 56° SSW 23:38:49 80° W 23:45:00 10° N
Cosmos 1933 3.7 23:34:49 10° N 23:38:13 61° NNW 23:38:13 61° NNW
Cosmos 1151 Rocket 3.2 23:36:06 10° NNW 23:40:03 65° WNW 23:40:03 65° WNW
IRIDIUM 103 4.4 23:41:42 60° WSW 23:42:19 65° W 23:47:31 10° N
Cosmos 44 3.7 23:43:37 44° WNW 23:44:10 47° NW 23:48:26 10° NNE
Cosmos 1500 Rocket 4.1 23:44:49 49° ENE 23:44:49 49° ENE 23:48:45 10° NNE
Cosmos 2369 Rocket 3.2 23:41:16 10° N 23:46:31 39° ENE 23:48:49 27° ESE
Cosmos 1727 Rocket 4.0 23:40:22 10° N 23:46:37 77° E 23:48:04 55° SSE
GP-B 3.8 23:44:35 10° N 23:48:50 45° W 23:48:51 45° W
Cosmos 371 Rocket 3.2 23:45:34 10° NNW 23:50:24 79° WSW 23:50:24 79° WSW
SeaSat 1 4.5 23:48:48 10° ENE 23:51:20 15° E 23:51:20 15° E
Helios 1B rocket 3.5 23:52:07 10° NNE 23:55:23 37° ENE 23:55:23 37° ENE
